Regional Weather Roundup
Issued by NWS

Home | Current Version | Previous Version | Text Only | Print | Product List | Glossary Off
Versions: 1 2 3 4 5 6 7 8 9 10 11 12 13 14 15 16 17 18 19 20 21 22 23 24 25 26 27 28 29 30 31 32 33 34 35 36 37 38 39 40 41 42 43 44 45 46 47 48 49 50

000
ASUS43 KOAX 250402
RWRNE

WEATHER ROUNDUP FOR NEBRASKA
NATIONAL WEATHER SERVICE OMAHA NE
1100 PM CDT TUE MAY 24 2016

NOTES: SATELLITE DATA IS BEING USED TO AUGMENT CLOUD COVER ABOVE
       12000 FEET.
       "FAIR" INDICATES FEW OR NO CLOUDS BELOW 12,000 FEET WITH NO
       SIGNIFICANT WEATHER AND/OR OBSTRUCTIONS TO VISIBILITY.

  * THESE STATIONS DO NOT REPORT WEATHER SUCH AS RAIN...SNOW OR FOG.

NEZ001>004-019>022-054>056-250500-
NEBRASKA PANHANDLE

CITY           SKY/WX    TMP DP  RH WIND       PRES   REMARKS
SCOTTSBLUFF    CLOUDY    56  47  71 NE14G20   29.84S
ALLIANCE       CLOUDY    51  49  92 NE14      29.84F
CHADRON        CLOUDY    54  32  43 E12       29.82F
SIDNEY         CLOUDY    54  51  90 E3        29.82R
$$

NEZ057>060-069>072-079>082-250500-
SOUTHWEST NEBRASKA

CITY           SKY/WX    TMP DP  RH WIND       PRES   REMARKS
NORTH PLATTE   CLOUDY    64  59  83 W14       29.87R
IMPERIAL       LGT RAIN  54  52  93 E16       29.78F
LEXINGTON      CLOUDY    69  60  73 SE13      29.79F
MCCOOK         CLOUDY    67  62  84 E10       29.75F
$$

NEZ005>010-023>029-035>040-094-250500-
NORTH CENTRAL NEBRASKA

CITY           SKY/WX    TMP DP  RH WIND       PRES   REMARKS
VALENTINE      CLOUDY    70  54  56 SE10      29.78F
AINSWORTH      CLOUDY    67  55  66 SE7       29.81F
BROKEN BOW     CLOUDY    67  59  75 SE9       29.80S
ORD            CLOUDY    70  60  70 SE9       29.79S
$$

NEZ041-046>049-061>064-073>077-083>087-250500-
SOUTH CENTRAL NEBRASKA

CITY           SKY/WX    TMP DP  RH WIND       PRES   REMARKS
GRAND ISLAND   CLOUDY    72  60  66 SE15G22   29.81F
HASTINGS       CLOUDY    70  61  73 SE16G25   29.80F
KEARNEY *      CLOUDY    70  61  73 E13       29.80F
YORK           CLOUDY    72  63  73 SE13      29.83F
$$

NEZ011>018-030>034-042>045-250500-
NORTHEAST NEBRASKA

CITY           SKY/WX    TMP DP  RH WIND       PRES   REMARKS
NORFOLK        CLOUDY    69  57  65 SE12      29.82F
ALBION         CLOUDY    71  58  62 SE12      29.82S
BLAIR          CLOUDY    72  62  71 SE9       29.87S
FREMONT        CLOUDY    71  61  70 SE6       29.86S
TEKAMAH        CLOUDY    67  61  81 SE5       29.85R
$$

NEZ050>053-065>068-078-088>093-250500-
SOUTHEAST NEBRASKA

CITY           SKY/WX    TMP DP  RH WIND       PRES   REMARKS
LINCOLN        CLOUDY    74  62  66 E12       29.84F
OMAHA EPPLEY   CLOUDY    74  63  68 S10       29.87R
FALLS CITY     CLOUDY    73  65  75 SE5       29.88R
PLATTSMOUTH    CLOUDY    73  65  77 SE8       29.88R
$$

NEZ044-045-051>053-067-250500-
OMAHA AREA

CITY           SKY/WX    TMP DP  RH WIND       PRES   REMARKS
OMAHA EPPLEY   CLOUDY    74  63  68 S10       29.87R
BLAIR          CLOUDY    72  62  71 SE9       29.87S
FREMONT        CLOUDY    71  61  70 SE6       29.86S
PLATTSMOUTH    CLOUDY    73  65  77 SE8       29.88R
$$




USA.gov is the U.S. government's official web portal to all federal, state and local government web resources and services.